Date String (YYYY-MM-DD hh:mm:ss) UTC,Instrument flags,absolute air pressure of the measurement (hPa),sample flow rate (lpm),inlet stack bypass flow (lpm),air temperature of the measurement (°C),ambient temperature measured by the external sensor (°C),aerosol sample conditioner tube jacket temperature (°C),OPC LED temperature (°C),internal box temperature (°C),relative humidity of the measurement (%),span deviation,mass concentration of particles derived from Lorenz-Mie calculation of OPC scattering (μg/m³),mass concentration of particles derived from Lorenz-Mie calculation of OPC scattering (μg/m³),mass concentration of particles derived from Lorenz-Mie calculation of OPC scattering (μg/m³)
DateTimeUTC,F1_M11,P_M11,Q1_M11,Q2_M11,T1_M11,T2_M11,T3_M11,T4_M11,T5_M11,U1_M11,ZSPAN_M11,X0_M11,X2_M11,X1_M11
2023-11-03 20:00:00,SystemResetWarning,0830.7,5.00,000.00,028.4,027.5,000.0,036.6,029.9,11.9,0000.0,0001.83,0001.14,0000.87
2023-11-03 20:01:00,SystemResetWarning,0830.7,4.99,000.00,028.4,027.0,000.0,036.6,030.0,11.8,0000.0,0001.71,0001.11,0000.87
2023-11-03 20:02:00,SystemResetWarning,0830.7,5.00,000.00,028.4,025.3,000.0,036.6,029.8,11.9,0000.0,0001.66,0001.09,0000.87
2023-11-03 20:03:00,SystemResetWarning,0830.7,5.01,000.00,028.3,024.9,000.0,036.5,029.7,11.9,0000.0,0001.78,0001.11,0000.86
2023-11-03 20:04:00,SystemResetWarning,0830.7,5.01,000.00,028.2,025.1,000.0,036.5,029.4,12.2,0000.0,0001.83,0001.10,0000.84
2023-11-03 20:05:00,SystemResetWarning,0830.7,4.99,000.00,028.1,025.5,000.0,036.5,029.3,12.2,0000.0,0001.98,0001.11,0000.85
2023-11-03 20:06:00,SystemResetWarning,0830.7,4.99,000.00,028.1,025.8,000.0,036.5,029.3,12.1,0000.0,0001.93,0001.11,0000.85
2023-11-03 20:07:00,SystemResetWarning,0830.7,5.02,000.00,028.1,026.1,000.0,036.4,029.4,12.0,0000.0,0001.90,0001.09,0000.85
2023-11-03 20:08:00,SystemResetWarning,0830.7,5.00,000.00,028.1,026.3,000.0,036.4,029.5,12.1,0000.0,0002.78,0001.08,0000.85
2023-11-03 20:09:00,SystemResetWarning,0830.7,5.00,000.00,028.1,026.5,000.0,036.4,029.5,11.9,0000.0,0003.47,0001.11,0000.85
2023-11-03 20:10:00,SystemResetWarning,0830.6,4.99,000.00,028.1,026.7,000.0,036.4,029.6,11.8,0000.0,0003.39,0001.11,0000.85
2023-11-03 20:11:00,SystemResetWarning,0830.6,4.99,000.00,028.2,026.8,000.0,036.4,029.6,11.8,0000.0,0003.30,0001.08,0000.85
2023-11-03 20:12:00,SystemResetWarning,0830.5,5.01,000.00,028.2,027.0,000.0,036.4,029.6,11.8,0000.0,0003.30,0001.08,0000.84
2023-11-03 20:13:00,SystemResetWarning,0830.5,5.01,000.00,028.2,027.1,000.0,036.5,029.7,11.6,0000.0,0003.37,0001.08,0000.83
2023-11-03 20:14:00,SystemResetWarning,0830.4,5.00,000.00,028.2,027.2,000.0,036.5,029.8,11.8,0000.0,0003.33,0001.06,0000.82
2023-11-03 20:15:00,SystemResetWarning,0830.7,5.00,000.00,028.3,027.3,000.0,036.5,029.8,11.9,0000.0,0003.23,0001.02,0000.81
2023-11-03 20:16:00,SystemResetWarning,0830.6,4.99,000.00,028.3,027.3,000.0,036.5,029.8,11.9,0000.0,0003.02,0000.97,0000.79
2023-11-03 20:17:00,SystemResetWarning,0830.5,5.00,000.00,028.3,027.4,000.0,036.5,029.9,11.6,0000.0,0002.98,0000.95,0000.78
2023-11-03 20:18:00,SystemResetWarning,0830.7,5.00,000.00,028.4,027.4,000.0,036.5,029.9,11.6,0000.0,0002.99,0000.95,0000.77
2023-11-03 20:19:00,SystemResetWarning,0830.5,5.00,000.00,028.4,027.5,000.0,036.6,029.9,11.6,0000.0,0002.39,0000.98,0000.77
2023-11-03 20:20:00,SystemResetWarning,0830.5,5.00,000.00,028.4,027.5,000.0,036.6,030.0,11.7,0000.0,0001.58,0000.96,0000.76
2023-11-03 20:21:00,SystemResetWarning,0830.6,5.00,000.00,028.4,026.7,000.0,036.6,029.9,11.7,0000.0,0001.47,0000.93,0000.75
2023-11-03 20:22:00,SystemResetWarning,0830.5,5.00,000.00,028.4,025.1,000.0,036.6,029.7,11.8,0000.0,0001.92,0000.95,0000.75
2023-11-03 20:23:00,SystemResetWarning,0830.6,5.01,000.00,028.3,024.9,000.0,036.5,029.5,11.7,0000.0,0002.88,0000.94,0000.74
2023-11-03 20:24:00,SystemResetWarning,0830.6,5.01,000.00,028.2,025.2,000.0,036.5,029.2,11.8,0000.0,0003.44,0000.96,0000.73
2023-11-03 20:25:00,SystemResetWarning,0830.6,4.99,000.00,028.1,025.6,000.0,036.5,029.3,11.7,0000.0,0003.55,0000.99,0000.74
2023-11-03 20:26:00,SystemResetWarning,0830.6,5.00,000.00,028.1,025.9,000.0,036.4,029.3,11.7,0000.0,0004.62,0001.02,0000.73
2023-11-03 20:27:00,SystemResetWarning,0830.6,5.00,000.00,028.1,026.2,000.0,036.4,029.4,11.8,0000.0,0005.39,0001.03,0000.72
2023-11-03 20:28:00,SystemResetWarning,0830.6,5.00,000.00,028.1,026.4,000.0,036.4,029.5,11.9,0000.0,0005.56,0001.05,0000.72
2023-11-03 20:29:00,SystemResetWarning,0830.6,4.99,000.00,028.1,026.6,000.0,036.4,029.5,11.8,0000.0,0005.56,0001.05,0000.71
2023-11-03 20:30:00,SystemResetWarning,0830.6,4.99,000.00,028.1,026.8,000.0,036.4,029.6,11.8,0000.0,0005.71,0001.05,0000.70
2023-11-03 20:31:00,SystemResetWarning,0830.6,5.01,000.00,028.2,026.9,000.0,036.4,029.6,11.8,0000.0,0005.61,0001.02,0000.70
2023-11-03 20:32:00,SystemResetWarning,0830.6,5.01,000.00,028.2,027.0,000.0,036.4,029.7,11.7,0000.0,0005.59,0001.02,0000.69
2023-11-03 20:33:00,SystemResetWarning,0830.5,5.01,000.00,028.2,027.1,000.0,036.4,029.7,11.8,0000.0,0005.33,0001.00,0000.68
2023-11-03 20:34:00,SystemResetWarning,0830.6,4.99,000.00,028.2,027.2,000.0,036.5,029.8,11.8,0000.0,0004.32,0001.00,0000.68
2023-11-03 20:35:00,SystemResetWarning,0830.6,4.99,000.00,028.3,027.3,000.0,036.5,029.8,11.6,0000.0,0003.86,0001.00,0000.68
2023-11-03 20:36:00,SystemResetWarning,0830.6,5.00,000.00,028.3,027.3,000.0,036.5,029.8,11.3,0000.0,0003.67,0000.98,0000.67
2023-11-03 20:37:00,SystemResetWarning,0830.7,5.00,000.00,028.3,027.4,000.0,036.5,029.9,11.3,0000.0,0002.65,0000.94,0000.66
2023-11-03 20:38:00,SystemResetWarning,0830.7,5.00,000.00,028.4,027.4,000.0,036.5,029.9,11.4,0000.0,0001.84,0000.94,0000.66
2023-11-03 20:39:00,SystemResetWarning,0830.7,5.00,000.00,028.4,027.5,000.0,036.6,029.9,11.4,0000.0,0001.68,0000.95,0000.67
2023-11-03 20:40:00,SystemResetWarning,0830.7,5.00,000.00,028.4,027.5,000.0,036.6,030.0,11.3,0000.0,0001.73,0000.97,0000.68
2023-11-03 20:41:00,SystemResetWarning,0830.7,5.00,000.00,028.5,027.1,000.0,036.6,030.0,11.2,0000.0,0001.63,0000.97,0000.68
2023-11-03 20:42:00,SystemResetWarning,0830.7,5.00,000.00,028.4,025.3,000.0,036.6,029.8,11.3,0000.0,0001.58,0000.95,0000.68
2023-11-03 20:43:00,SystemResetWarning,0830.6,5.01,000.00,028.3,024.8,000.0,036.5,029.6,11.5,0000.0,0001.56,0000.94,0000.68
2023-11-03 20:44:00,SystemResetWarning,0830.6,5.01,000.00,028.2,025.1,000.0,036.5,029.3,11.6,0000.0,0001.52,0000.93,0000.68
2023-11-03 20:45:00,SystemResetWarning,0830.6,5.00,000.00,028.1,025.4,000.0,036.5,029.3,11.8,0000.0,0001.39,0000.92,0000.69
2023-11-03 20:46:00,SystemResetWarning,0830.6,4.99,000.00,028.1,025.8,000.0,036.4,029.3,12.1,0000.0,0001.37,0000.93,0000.70
2023-11-03 20:47:00,SystemResetWarning,0830.7,5.00,000.00,028.1,026.1,000.0,036.4,029.4,11.8,0000.0,0001.34,0000.92,0000.71
2023-11-03 20:48:00,SystemResetWarning,0830.6,5.00,000.00,028.1,026.4,000.0,036.4,029.5,11.7,0000.0,0001.38,0000.94,0000.72
2023-11-03 20:49:00,SystemResetWarning,0830.6,5.00,000.00,028.1,026.6,000.0,036.4,029.5,11.8,0000.0,0001.37,0000.94,0000.72
2023-11-03 20:50:00,SystemResetWarning,0830.6,5.01,000.00,028.1,026.8,000.0,036.4,029.6,11.8,0000.0,0001.34,0000.92,0000.72
2023-11-03 20:51:00,SystemResetWarning,0830.6,5.00,000.00,028.2,026.9,000.0,036.4,029.7,11.8,0000.0,0001.30,0000.90,0000.71
2023-11-03 20:52:00,SystemResetWarning,0830.7,4.99,000.00,028.2,027.0,000.0,036.4,029.7,11.7,0000.0,0001.23,0000.88,0000.72
2023-11-03 20:53:00,SystemResetWarning,0830.7,4.99,000.00,028.2,027.2,000.0,036.4,029.8,11.6,0000.0,0001.22,0000.88,0000.72
2023-11-03 20:54:00,SystemResetWarning,0830.7,4.99,000.00,028.3,027.3,000.0,036.5,029.8,11.6,0000.0,0001.21,0000.88,0000.71
2023-11-03 20:55:00,SystemResetWarning,0830.7,5.00,000.00,028.3,027.4,000.0,036.5,029.9,11.9,0000.0,0001.27,0000.90,0000.71
2023-11-03 20:56:00,SystemResetWarning,0830.7,5.01,000.00,028.3,027.4,000.0,036.5,029.9,11.7,0000.0,0001.23,0000.89,0000.71
2023-11-03 20:57:00,SystemResetWarning,0830.7,5.01,000.00,028.4,027.5,000.0,036.5,030.0,11.5,0000.0,0001.26,0000.90,0000.71
2023-11-03 20:58:00,SystemResetWarning,0830.7,5.00,000.00,028.4,027.6,000.0,036.6,030.0,11.5,0000.0,0001.35,0000.90,0000.70
2023-11-03 20:59:00,SystemResetWarning,0830.7,5.00,000.00,028.5,027.7,000.0,036.6,030.1,11.6,0000.0,0001.41,0000.91,0000.69
